Date String (YYYY-MM-DD hh:mm:ss) UTC,Instrument flags,absolute air pressure of the measurement (hPa),sample flow rate (lpm),inlet stack bypass flow (lpm),air temperature of the measurement (°C),ambient temperature measured by the external sensor (°C),aerosol sample conditioner tube jacket temperature (°C),OPC LED temperature (°C),internal box temperature (°C),relative humidity of the measurement (%),span deviation,mass concentration of particles derived from Lorenz-Mie calculation of OPC scattering (μg/m³),mass concentration of particles derived from Lorenz-Mie calculation of OPC scattering (μg/m³),mass concentration of particles derived from Lorenz-Mie calculation of OPC scattering (μg/m³)
DateTimeUTC,F1_M11,P_M11,Q1_M11,Q2_M11,T1_M11,T2_M11,T3_M11,T4_M11,T5_M11,U1_M11,ZSPAN_M11,X2_M11,X0_M11,X1_M11
2024-05-08 16:00:00,SystemResetWarning,0819.5,5.00,000.00,021.1,020.4,000.0,029.1,022.7,009.8,0000.0,0001.48,0005.31,0000.69
2024-05-08 16:01:00,SystemResetWarning,0819.4,5.00,000.00,021.1,020.5,000.0,029.1,022.7,009.6,0000.0,0001.41,0004.98,0000.69
2024-05-08 16:02:00,SystemResetWarning,0819.5,5.00,000.00,021.1,020.5,000.0,029.1,022.7,009.6,0000.0,0001.40,0005.07,0000.69
2024-05-08 16:03:00,SystemResetWarning,0819.4,5.00,000.00,021.1,020.5,000.0,029.1,022.7,009.4,0000.0,0001.37,0006.49,0000.68
2024-05-08 16:04:00,SystemResetWarning,0819.5,5.00,000.00,021.1,020.5,000.0,029.1,022.7,009.6,0000.0,0001.34,0005.51,0000.68
2024-05-08 16:05:00,SystemResetWarning,0819.5,5.00,000.00,021.1,020.5,000.0,029.1,022.7,009.6,0000.0,0001.35,0005.61,0000.67
2024-05-08 16:06:00,SystemResetWarning,0819.6,5.00,000.00,021.1,020.5,000.0,029.1,022.8,009.5,0000.0,0001.30,0005.23,0000.66
2024-05-08 16:07:00,SystemResetWarning,0819.6,5.00,000.00,021.1,020.5,000.0,029.1,022.8,009.6,0000.0,0001.25,0004.55,0000.66
2024-05-08 16:08:00,SystemResetWarning,0819.7,5.00,000.00,021.1,020.5,000.0,029.1,022.8,009.6,0000.0,0001.23,0004.54,0000.66
2024-05-08 16:09:00,SystemResetWarning,0819.6,5.00,000.00,021.1,020.5,000.0,029.2,022.8,009.6,0000.0,0001.24,0004.78,0000.66
2024-05-08 16:10:00,SystemResetWarning,0819.6,4.99,000.00,021.1,020.5,000.0,029.2,022.8,009.6,0000.0,0001.20,0004.89,0000.65
2024-05-08 16:11:00,SystemResetWarning,0819.5,5.01,000.00,021.2,020.5,000.0,029.2,022.8,009.8,0000.0,0001.20,0004.87,0000.65
2024-05-08 16:12:00,SystemResetWarning,0819.9,5.00,000.00,021.2,020.5,000.0,029.2,022.8,009.8,0000.0,0001.24,0004.92,0000.66
2024-05-08 16:13:00,SystemResetWarning,0819.5,5.00,000.00,021.2,020.6,000.0,029.2,022.8,010.1,0000.0,0001.25,0004.96,0000.66
2024-05-08 16:14:00,SystemResetWarning,0819.8,5.01,000.00,021.2,020.6,000.0,029.2,022.8,010.0,0000.0,0001.22,0003.35,0000.64
2024-05-08 16:15:00,SystemResetWarning,0819.9,5.00,000.00,021.2,020.6,000.0,029.2,022.8,010.0,0000.0,0001.21,0003.18,0000.64
2024-05-08 16:16:00,SystemResetWarning,0820.0,5.00,000.00,021.2,020.6,000.0,029.2,022.8,009.7,0000.0,0001.22,0003.18,0000.63
2024-05-08 16:17:00,SystemResetWarning,0819.7,5.00,000.00,021.2,020.6,000.0,029.2,022.8,010.1,0000.0,0001.23,0004.00,0000.64
2024-05-08 16:18:00,SystemResetWarning,0819.6,5.00,000.00,021.2,020.6,000.0,029.2,022.8,010.0,0000.0,0001.29,0004.40,0000.64
2024-05-08 16:19:00,SystemResetWarning,0819.9,5.00,000.00,021.2,020.6,000.0,029.2,022.8,010.1,0000.0,0001.28,0004.36,0000.62
2024-05-08 16:20:00,SystemResetWarning,0819.8,5.00,000.00,021.2,020.6,000.0,029.2,022.8,009.9,0000.0,0001.30,0004.33,0000.61
2024-05-08 16:21:00,SystemResetWarning,0819.8,5.00,000.00,021.2,020.6,000.0,029.2,022.9,009.8,0000.0,0001.30,0005.67,0000.61
2024-05-08 16:22:00,SystemResetWarning,0819.7,5.01,000.00,021.2,020.6,000.0,029.3,022.8,009.7,0000.0,0001.28,0007.16,0000.60
2024-05-08 16:23:00,SystemResetWarning,0819.6,5.00,000.00,021.2,020.6,000.0,029.3,022.8,009.9,0000.0,0001.24,0007.06,0000.59
2024-05-08 16:24:00,SystemResetWarning,0819.9,5.00,000.00,021.2,020.6,000.0,029.3,022.8,009.8,0000.0,0001.20,0006.96,0000.58
2024-05-08 16:25:00,SystemResetWarning,0819.8,5.00,000.00,021.2,020.6,000.0,029.3,022.9,009.8,0000.0,0001.19,0006.80,0000.59
2024-05-08 16:26:00,SystemResetWarning,0820.0,4.99,000.00,021.2,020.6,000.0,029.3,022.9,010.2,0000.0,0001.20,0006.88,0000.59
2024-05-08 16:27:00,SystemResetWarning,0819.8,4.99,000.00,021.2,020.6,000.0,029.3,022.9,009.9,0000.0,0001.15,0007.43,0000.59
2024-05-08 16:28:00,SystemResetWarning,0819.9,5.01,000.00,021.2,020.6,000.0,029.3,022.9,009.9,0000.0,0001.14,0006.62,0000.58
2024-05-08 16:29:00,SystemResetWarning,0819.8,5.01,000.00,021.3,020.7,000.0,029.3,022.9,009.7,0000.0,0001.10,0006.27,0000.58
2024-05-08 16:30:00,SystemResetWarning,0819.9,5.00,000.00,021.3,020.7,000.0,029.3,022.9,010.1,0000.0,0001.08,0006.20,0000.59
2024-05-08 16:31:00,SystemResetWarning,0819.8,4.98,000.00,021.3,020.7,000.0,029.3,022.9,010.3,0000.0,0001.04,0005.97,0000.59
2024-05-08 16:32:00,SystemResetWarning,0819.9,4.99,000.00,021.3,020.7,000.0,029.3,023.0,010.4,0000.0,0001.12,0006.17,0000.60
2024-05-08 16:33:00,SystemResetWarning,0819.8,5.01,000.00,021.3,020.7,000.0,029.3,023.0,010.4,0000.0,0001.12,0004.83,0000.60
2024-05-08 16:34:00,SystemResetWarning,0819.9,5.00,000.00,021.3,020.7,000.0,029.3,023.0,010.1,0000.0,0001.11,0004.82,0000.59
2024-05-08 16:35:00,SystemResetWarning,0819.8,5.00,000.00,021.3,020.7,000.0,029.4,023.0,009.9,0000.0,0001.10,0004.81,0000.59
2024-05-08 16:36:00,SystemResetWarning,0819.9,5.01,000.00,021.3,020.7,000.0,029.4,023.0,010.0,0000.0,0001.11,0004.82,0000.59
2024-05-08 16:37:00,SystemResetWarning,0819.7,5.00,000.00,021.3,020.7,000.0,029.4,023.0,010.2,0000.0,0001.09,0004.87,0000.58
2024-05-08 16:38:00,SystemResetWarning,0820.0,5.01,000.00,021.3,020.7,000.0,029.4,023.0,009.9,0000.0,0001.07,0004.11,0000.57
2024-05-08 16:39:00,SystemResetWarning,0820.1,5.00,000.00,021.4,020.8,000.0,029.4,023.0,009.8,0000.0,0001.03,0003.85,0000.57
2024-05-08 16:40:00,SystemResetWarning,0819.7,5.00,000.00,021.4,020.8,000.0,029.4,023.0,009.8,0000.0,0001.04,0003.97,0000.56
2024-05-08 16:41:00,SystemResetWarning,0819.8,5.00,000.00,021.4,020.8,000.0,029.4,023.1,009.8,0000.0,0001.10,0005.58,0000.55
2024-05-08 16:42:00,SystemResetWarning,0819.8,5.00,000.00,021.4,020.8,000.0,029.4,023.1,009.8,0000.0,0001.14,0006.51,0000.55
2024-05-08 16:43:00,SystemResetWarning,0819.8,5.00,000.00,021.4,020.8,000.0,029.4,023.1,009.7,0000.0,0001.09,0005.23,0000.54
2024-05-08 16:44:00,SystemResetWarning,0819.8,5.00,000.00,021.4,020.8,000.0,029.4,023.1,009.9,0000.0,0001.05,0004.62,0000.53
2024-05-08 16:45:00,SystemResetWarning,0819.8,5.00,000.00,021.4,020.8,000.0,029.4,023.1,010.2,0000.0,0001.08,0004.69,0000.53
2024-05-08 16:46:00,SystemResetWarning,0820.0,5.00,000.00,021.4,020.8,000.0,029.4,023.1,009.5,0000.0,0001.08,0004.66,0000.53
2024-05-08 16:47:00,SystemResetWarning,0819.8,5.00,000.00,021.4,020.8,000.0,029.4,023.1,010.4,0000.0,0001.03,0004.54,0000.53
2024-05-08 16:48:00,SystemResetWarning,0819.8,4.99,000.00,021.4,020.8,000.0,029.5,023.1,010.0,0000.0,0001.01,0004.38,0000.54
2024-05-08 16:49:00,SystemResetWarning,0819.8,5.00,000.00,021.5,020.9,000.0,029.5,023.1,009.5,0000.0,0001.02,0004.38,0000.54
2024-05-08 16:50:00,SystemResetWarning,0819.7,4.99,000.00,021.5,020.9,000.0,029.5,023.2,009.6,0000.0,0001.03,0004.39,0000.54
2024-05-08 16:51:00,SystemResetWarning,0819.9,5.00,000.00,021.5,020.9,000.0,029.5,023.1,009.5,0000.0,0001.02,0004.31,0000.54
2024-05-08 16:52:00,SystemResetWarning,0819.9,5.01,000.00,021.5,020.9,000.0,029.5,023.2,009.7,0000.0,0000.98,0003.22,0000.55
2024-05-08 16:53:00,SystemResetWarning,0819.8,5.00,000.00,021.5,020.9,000.0,029.5,023.1,009.7,0000.0,0000.94,0002.31,0000.54
2024-05-08 16:54:00,SystemResetWarning,0820.1,5.01,000.00,021.5,020.9,000.0,029.5,023.2,009.8,0000.0,0000.91,0002.15,0000.54
2024-05-08 16:55:00,SystemResetWarning,0820.0,5.00,000.00,021.5,020.9,000.0,029.5,023.2,009.5,0000.0,0000.92,0002.21,0000.54
2024-05-08 16:56:00,SystemResetWarning,0819.9,5.00,000.00,021.5,020.9,000.0,029.5,023.2,009.5,0000.0,0000.95,0002.65,0000.55
2024-05-08 16:57:00,SystemResetWarning,0819.8,5.00,000.00,021.5,020.9,000.0,029.5,023.2,009.4,0000.0,0000.95,0002.66,0000.55
2024-05-08 16:58:00,SystemResetWarning,0819.8,5.00,000.00,021.5,020.9,000.0,029.5,023.2,009.5,0000.0,0000.96,0002.72,0000.54
2024-05-08 16:59:00,SystemResetWarning,0819.8,5.00,000.00,021.5,021.0,000.0,029.6,023.2,009.2,0000.0,0000.99,0002.99,0000.54
